Flag for Norway Weather past 2 weeks in Ny-Ålesund, Svalbard, Norway

Now
32 °F

Chilly.


Feels Like: 27 °F
Forecast: 22 / 35 °F
Wind: 5 mph from Southeast

Location: Ny Alesund

Current Time: May 27, 2015 at 8:25:31 PM

Latest Report: May 27, 2015 at 7:00 PM


Visibility: N/A

Pressure: 30.14 "Hg

Humidity: 69%

Dew point: 23 °F

Location of Ny-ÅlesundLocation

Historic Weather in Ny-Ålesund — Graph

°F

Ny-Ålesund temperature yesterday

Maximum temperature yesterday: 39 °F (at 4:00 PM)
Minimum temperature yesterday: 28 °F (at 3:00 AM)
Average temperature yesterday: 32 °F

Past Weeks' High & Low Weather Summary

 TemperatureHumidityPressure
High40 °F (May 21, 12:00 PM)87% (May 16, 7:00 PM)30.19 "Hg (May 16, 7:00 PM)
Low20 °F (May 13, 6:00 AM)42% (May 24, 9:00 AM)29.44 "Hg (May 22, 6:00 AM)
Average30 °F68%29.87 "Hg
* Reported May 12 7:00 PM — May 27 7:00 PM, Ny-Ålesund, Weather by CustomWeather, © 2015

Note: Actual official high and low records may vary slightly from our data, if they occured in-between our weather recording intervals... More about our weather records

Advertising

Ny-Ålesund weather history for previous 24 hours

 ConditionsComfort  
Time TempWeatherWind HumidityBarometerVisibility
7:00 PM
Wed, May 27
32 °FChilly.5 mph69%30.14 "HgN/A
6:00 PM34 °FChilly.1 mph56%30.16 "HgN/A
5:00 PM35 °FChilly.2 mph56%30.17 "HgN/A
4:00 PM35 °FChilly.1 mph56%30.17 "HgN/A
3:00 PM33 °FChilly.2 mph54%30.18 "HgN/A
2:00 PM33 °FChilly.3 mph57%30.18 "HgN/A
1:00 PM32 °FChilly.3 mph61%30.18 "HgN/A
12:00 PM33 °FChilly.6 mph60%30.18 "HgN/A
11:00 AM33 °FChilly.5 mph60%30.19 "HgN/A
10:00 AM33 °FChilly.5 mph60%30.18 "HgN/A
9:00 AM32 °FChilly.5 mph63%30.18 "HgN/A
8:00 AM32 °FChilly.3 mph60%30.18 "HgN/A
7:00 AM32 °FChilly.3 mph59%30.18 "HgN/A
6:00 AM31 °FChilly.5 mph70%30.18 "HgN/A
4:00 AM33 °FChilly.1 mph67%30.18 "HgN/A
3:00 AM33 °FChilly.1 mph67%30.18 "HgN/A
2:00 AM33 °FChilly.1 mph63%30.17 "HgN/A
1:00 AM33 °FChilly.1 mph63%30.17 "HgN/A
12:00 AM33 °FChilly.No wind63%30.17 "HgN/A
11:00 PM
Tue, May 26
33 °FChilly.1 mph67%30.16 "HgN/A
10:00 PM34 °FChilly.No wind59%30.15 "HgN/A
9:00 PM33 °FChilly.1 mph63%30.15 "HgN/A
Weather by CustomWeather, © 2015

See weather overviewHow to use our weather pages